TOURFACTS.DK  
Stats and Facts from Tour de France.

Tour de France 2019 starts in 354 days
  Riders   Stages   Teams   Summits   Yearly  


 
Search by year

After 2018 - Stage 9:
 15000 starters.
  5163 different riders.
  639 teams.
  2241 stages.
  456 restdays.
  441138.60 km.
  5662 abandonnees.


Top 3
GC
Christopher Froome86:20:55
Rigoberto Urán86:21:49
Romain Bardet86:23:15
Climb
Warren Barguil169 pt.
Primoz Roglic80 pt.
Thomas De Gendt64 pt.
Sprint
Michael Matthews359 pt.
André Greipel234 pt.
Edvald Boasson Hagen220 pt.
Youth
Simon Yates86:27:09
Louis Meintjes86:29:15
Emanuel Buchmann86:54:16
Facts from Tour de France 1964
  |   Stages.  |   Stage winners.  |   Days in yellow  |   Average speed.  |   Route.  |   Teams.  |   All riders.  |   Rookies.  |  

  |   Withdrawls.  |   GC.  |   Polka  |   Green  |   White  |   Summits. (In tour)  |   Miscellaneous.  |  

Stage 10b on July 1st. 1964
         Owning:    Joseph Groussard    
Pick a stage:  1 2 3a 3b 4 5 6 7 8 9 10a 10b 11 12 13 14 15 16 17 18 19 20 21 22a 22b
  HyèresToulon | Dist: 20.80 km.
Cat: 4Côte de GassinESPFederico Bahamontes
3 points
 

Average speed for all riders in stage:  39,728 km./hr.
    Place:Name:Team:Time:Km/h:
FRAJacques AnquetilFRASaint Raphael-Gitane-Campagnol..00:27:52  +  00:00:00=44,785 
FRARaymond PoulidorFRAMercier-BP-Hutchinson00:28:28  +  00:00:36=43,841 
GERRudi AltigFRASaint Raphael-Gitane-Campagnol..00:28:46  +  00:00:54=43,384 
4 BELFerdinand BrackeFRAPeugeot-BP-Englebert00:28:59  +  00:01:07=43,059 
5 ITAVittorio AdorniITASalvarani00:29:23  +  00:01:31=42,473 
6 FRAHenri AngladeFRAPelforth-Sauvage-Lejeune-Wolbe..00:29:25  +  00:01:33=42,425 
7 NEDHenk NijdamNLDTelevisier00:29:28  +  00:01:36=42,353 
8 ESPFrancisco GabicESPKas-Kaskol00:29:36  +  00:01:44=42,162 
9 ESPMiguel PachecoESPFerrys00:29:42  +  00:01:50=42,020 
10 NEDAlbertus GeldermansFRASaint Raphael-Gitane-Campagnol..00:29:49  +  00:01:57=41,856 
11 FRACamille Le MennFRAPeugeot-BP-Englebert00:29:50  +  00:01:58=41,832 
12 FRAPaul VermeulenFRAMercier-BP-Hutchinson00:30:04  +  00:02:12=41,508 
13 BELWilly MontyFRAPelforth-Sauvage-Lejeune-Wolbe..00:30:07  +  00:02:15=41,439 
14 ESPFederico BahamontesFRAMargnat-Paloma-Dunlop00:30:12  +  00:02:20=41,325 
15 BELGilbert Desmet 1BELWiel´s-Groene Leeuw00:30:14  +  00:02:22=41,279 
16 FRAHenry DuezFRAPeugeot-BP-Englebert00:30:15  +  00:02:23=41,256 
17 BELEdward SelsBELSolo-Superia00:30:24  +  00:02:32=41,053 
18 BELVictor Van SchilFRAMercier-BP-Hutchinson00:30:28  +  00:02:36=40,963 
19 ENGVic DensonBELSolo-Superia00:30:29  +  00:02:37=40,940 
20 ENGTom SimpsonFRAPeugeot-BP-Englebert00:30:32  +  00:02:40=40,873 
21 FRAPierre EveraertFRASaint Raphael-Gitane-Campagnol..00:30:35  +  00:02:43=40,807 
22 NEDJan JanssenFRAPelforth-Sauvage-Lejeune-Wolbe..00:30:40  +  00:02:48=40,696 
23 FRAJean GaincheFRAMercier-BP-Hutchinson00:30:40  +  00:02:48=40,696 
24 FRAJoseph GroussardFRAPelforth-Sauvage-Lejeune-Wolbe..00:30:43  +  00:02:51=40,629 
25 BELBenoni BeheytBELWiel´s-Groene Leeuw00:30:46  +  00:02:54=40,563 
26 FRAJean-Pierre GenetFRAMercier-BP-Hutchinson00:30:49  +  00:02:57=40,498 
27 BELArthur DecabooterBELSolo-Superia00:30:51  +  00:02:59=40,454 
28 FRAAndré FoucherFRAPelforth-Sauvage-Lejeune-Wolbe..00:30:51  +  00:02:59=40,454 
29 FRAJoseph NovalesFRAMargnat-Paloma-Dunlop00:30:52  +  00:03:00=40,432 
30 FRAJean-Claude LebaubeFRASaint Raphael-Gitane-Campagnol..00:30:52  +  00:03:00=40,432 
31 ESPEsteban MartinFRAMargnat-Paloma-Dunlop00:30:53  +  00:03:01=40,410 
32 BELRik WoutersNLDTelevisier00:30:55  +  00:03:03=40,367 
33 BELGuillaume Van TongerlooBELFlandria-Romeo00:30:55  +  00:03:03=40,367 
34 BELMarcel OngenaeBELFlandria-Romeo00:30:56  +  00:03:04=40,345 
35 BELJozef TimmermanBELWiel´s-Groene Leeuw00:30:56  +  00:03:04=40,345 
36 NEDJo De RooFRASaint Raphael-Gitane-Campagnol..00:30:56  +  00:03:04=40,345 
37 BELGilbert Desmet 2BELWiel´s-Groene Leeuw00:30:57  +  00:03:05=40,323 
38 FRAJean StablinskiFRASaint Raphael-Gitane-Campagnol..00:30:59  +  00:03:07=40,280 
39 BELArmand DesmetBELSolo-Superia00:30:59  +  00:03:07=40,280 
40 FRAAndré DarrigadeFRAMargnat-Paloma-Dunlop00:31:04  +  00:03:12=40,172 
41 ITAArnaldo PambiancoITASalvarani00:31:05  +  00:03:13=40,150 
42 ENGBarry HobanFRAMercier-BP-Hutchinson00:31:06  +  00:03:14=40,129 
43 ITABruno FantinatoITASalvarani00:31:07  +  00:03:15=40,107 
44 BELBernard Van De KerckhoveBELSolo-Superia00:31:08  +  00:03:16=40,086 
45 FRAJean-Claude LefebvreFRAPelforth-Sauvage-Lejeune-Wolbe..00:31:09  +  00:03:17=40,064 
46 GERHans JunkermannBELWiel´s-Groene Leeuw00:31:12  +  00:03:20=40,000 
47 NEDPiet DamenNLDTelevisier00:31:13  +  00:03:21=39,979 
48 FRALouis RostollanFRASaint Raphael-Gitane-Campagnol..00:31:13  +  00:03:21=39,979 
49 ESPJuan UribezubiaESPKas-Kaskol00:31:18  +  00:03:26=39,872 
50 NEDHuub ZilverbergBELFlandria-Romeo00:31:20  +  00:03:28=39,830 
51 ITABattista BabiniITASalvarani00:31:22  +  00:03:30=39,787 
52 BELJean-Baptiste ClaesBELWiel´s-Groene Leeuw00:31:23  +  00:03:31=39,766 
53 ESPSebastián ElorzaESPKas-Kaskol00:31:23  +  00:03:31=39,766 
54 ESPMiguel MartinESPKas-Kaskol00:31:30  +  00:03:38=39,619 
55 FRAAnatole NovakFRASaint Raphael-Gitane-Campagnol..00:31:37  +  00:03:45=39,473 
56 FRAGuy EpaudFRAPelforth-Sauvage-Lejeune-Wolbe..00:31:37  +  00:03:45=39,473 
57 ENGMichael WrightBELWiel´s-Groene Leeuw00:31:41  +  00:03:49=39,390 
58 GERKarl-Heinz KundeBELWiel´s-Groene Leeuw00:31:45  +  00:03:53=39,307 
59 ITAAntonio FranchiITASalvarani00:31:46  +  00:03:54=39,286 
60 NEDJo de HaanNLDTelevisier00:31:49  +  00:03:57=39,225 
61 ITAVito TacconeITASalvarani00:31:50  +  00:03:58=39,204 
62 BELEddy PauwelsFRAMargnat-Paloma-Dunlop00:31:50  +  00:03:58=39,204 
63 FRAJean MilesiFRAMargnat-Paloma-Dunlop00:31:55  +  00:04:03=39,102 
64 NEDCees HaastNLDTelevisier00:31:55  +  00:04:03=39,102 
65 ESPRogelio HernandezESPFerrys00:31:55  +  00:04:03=39,102 
66 FRARobert PoulotFRAMercier-BP-Hutchinson00:31:59  +  00:04:07=39,020 
67 FRARobert CazalaFRAMercier-BP-Hutchinson00:32:00  +  00:04:08=39,000 
68 ESPFernando ManzanequeESPFerrys00:32:01  +  00:04:09=38,980 
69 FRAAndré ZimmermannFRASaint Raphael-Gitane-Campagnol..00:32:02  +  00:04:10=38,959 
70 BELMichel Van AerdeBELSolo-Superia00:32:04  +  00:04:12=38,919 
71 BELWilly DerbovenBELSolo-Superia00:32:04  +  00:04:12=38,919 
72 ITAMario MinieriITASalvarani00:32:05  +  00:04:13=38,899 
73 ITAItalo MazzacuratiITASalvarani00:32:05  +  00:04:13=38,899 
74 ESPJoaquin GaleraESPKas-Kaskol00:32:09  +  00:04:17=38,818 
75 FRAClaude MattioFRAMargnat-Paloma-Dunlop00:32:10  +  00:04:18=38,798 
76 FRAJean GraczykFRAMargnat-Paloma-Dunlop00:32:20  +  00:04:28=38,598 
77 FRAFrancois HamonFRAPeugeot-BP-Englebert00:32:25  +  00:04:33=38,499 
78 BELFrans AerenhoutsFRAMercier-BP-Hutchinson00:32:26  +  00:04:34=38,479 
79 ALGHubert FerrerFRAPelforth-Sauvage-Lejeune-Wolbe..00:32:27  +  00:04:35=38,459 
80 NEDPiet van EstNLDTelevisier00:32:29  +  00:04:37=38,420 
81 ESPLuis OtañoESPFerrys00:32:31  +  00:04:39=38,380 
82 FRAEdouard DelbergheFRAPelforth-Sauvage-Lejeune-Wolbe..00:32:35  +  00:04:43=38,302 
83 ESPSalvador HonrubiaESPFerrys00:32:46  +  00:04:54=38,087 
84 ESPJosé Pérez FrancésESPFerrys00:32:48  +  00:04:56=38,049 
85 ESPJulio JiménezESPKas-Kaskol00:32:59  +  00:05:07=37,837 
86 FRARaymond MastrottoFRAPeugeot-BP-Englebert00:33:02  +  00:05:10=37,780 
87 BELEdgard SorgeloosBELSolo-Superia00:33:05  +  00:05:13=37,723 
88 FRAGeorges GroussardFRAPelforth-Sauvage-Lejeune-Wolbe..00:33:18  +  00:05:26=37,477 
89 BELCamiel VynckeBELFlandria-Romeo00:33:22  +  00:05:30=37,403 
90 ESPJosé SeguFRAMargnat-Paloma-Dunlop00:33:35  +  00:05:43=37,161 
91 FRAJacques GestraudFRAMargnat-Paloma-Dunlop00:33:46  +  00:05:54=36,960 
92 BELFrans BrandsBELFlandria-Romeo00:33:46  +  00:05:54=36,960 
93 IRLSeamus ElliottFRASaint Raphael-Gitane-Campagnol..00:33:50  +  00:05:58=36,887 
94 ESPJosé BernardezESPFerrys00:34:06  +  00:06:14=36,598 
95 ESPAntonio BertranESPFerrys00:34:25  +  00:06:33=36,262 
96 ESPAntonio BarrutiaESPKas-Kaskol00:34:42  +  00:06:50=35,965 


Todays birthdays.

1876  Frédéric Rigaux
1896  Federico Gay
1901  Paul Delbart
1944  Jean-Pierre Ducasse
1948  Marc Lievens
1961  Willem Wijnant
1964  Miguel Indurain
1965  Gianni Faresin
1973  Stefano Garzelli
1982  André Greipel
1984  Alan Marangoni




Visits: